[[[{"header":{"parameterUnit":"kt","parameterCategory":2,"dx":1,"dy":1,"la1":30.253999710083008,"la2":30.299108505249023,"lo1":-89.0895004272461,"lo2":-89.04439544677734,"nx":28,"ny":28,"refTime":"2022-10-31T21:00:00:Z","depth":0,"parameterNumber":1,"parameterNumberName":"U-component_of_WINDS"},"data":[-0.1634,-0.1549,-0.1506,-0.139,-0.1332,-0.1246,-0.1201,-0.114,-0.108,-0.0975,-0.0907,-0.0856,-0.078,-0.0691,-0.0616,-0.0595,-0.0567,-0.057,-0.0545,-0.0569,-0.0569,-0.057,-0.0586,-0.0565,-0.0565,-0.0526,-0.0526,-0.0526,-0.1661,-0.1602,-0.1528,-0.1426,-0.1362,-0.1333,-0.1251,-0.12,-0.1124,-0.1049,-0.0979,-0.0883,-0.0802,-0.0723,-0.0638,-0.06,-0.0582,-0.0581,-0.0582,-0.0571,-0.0595,-0.0613,-0.0597,-0.0597,-0.0597,-0.0597,-0.0597,-0.0597,-0.17,-0.165,-0.1562,-0.148,-0.1417,-0.1349,-0.1295,-0.1231,-0.1158,-0.1061,-0.1023,-0.0937,-0.0855,-0.0729,-0.0677,-0.061,-0.0604,-0.0588,-0.0584,-0.0581,-0.0585,-0.0649,-0.0593,-0.0593,-0.0593,-0.0593,-0.0593,0,-0.1714,-0.1681,-0.1604,-0.1516,-0.1453,-0.138,-0.1306,-0.1271,-0.1184,-0.1127,-0.1042,-0.0985,-0.0875,-0.079,-0.07,-0.0647,-0.0611,-0.0602,-0.0591,-0.0608,-0.0637,-0.0622,-0.0664,-0.0603,-0.0603,-0.0603,-0.0603,-0.0603,-0.175,-0.1697,-0.1581,-0.1534,-0.1481,-0.1406,-0.1352,-0.1278,-0.1225,-0.1123,-0.1084,-0.0997,-0.0924,-0.0795,-0.0721,-0.0639,-0.062,-0.0602,-0.0607,-0.0627,-0.062,-0.0624,-0.0619,-0.0602,-0.0602,-0.0602,-0.0602,0,-0.1775,-0.1701,-0.1603,-0.1492,-0.1463,-0.1412,-0.1318,-0.1266,-0.1208,-0.1128,-0.1105,-0.1015,-0.0932,-0.0859,-0.075,-0.0715,-0.0634,-0.0618,-0.0663,-0.0656,-0.0633,-0.0637,-0.0569,-0.0557,-0.0578,-0.0578,-0.0578,0,-0.1777,-0.1708,-0.1601,-0.1548,-0.1471,-0.1396,-0.1323,-0.1265,-0.1189,-0.1125,-0.1071,-0.1013,-0.0928,-0.086,-0.0807,-0.0728,-0.0707,-0.0675,-0.0662,-0.0679,-0.0683,-0.0649,-0.065,-0.0633,-0.0633,-0.0633,-0.0634,0,-0.1823,-0.1684,-0.1597,-0.1553,-0.1427,-0.1389,-0.1335,-0.1248,-0.1196,-0.1116,-0.1081,-0.0994,-0.0946,-0.0881,-0.0814,-0.082,-0.0714,-0.0709,-0.0682,-0.0684,-0.0661,-0.0663,-0.0622,-0.0634,-0.0634,-0.0634,-0.0635,0,-0.1812,-0.173,-0.1614,-0.1508,-0.1475,-0.1417,-0.1325,-0.1258,-0.1171,-0.1133,-0.1069,-0.1023,-0.0945,-0.0946,-0.0839,-0.0866,-0.0823,-0.0785,-0.0782,-0.0769,-0.0771,-0.0759,-0.0727,-0.0721,-0.0761,-0.0762,-0.0763,0,-0.1887,-0.1748,-0.1682,-0.1573,-0.1499,-0.1441,-0.1377,-0.1299,-0.1243,-0.1173,-0.1111,-0.1031,-0.1016,-0.098,-0.0937,-0.087,-0.0835,-0.0872,-0.0776,-0.0773,-0.0801,-0.0771,-0.0784,-0.0743,-0.0775,-0.0774,-0.0773,0,-0.1934,-0.1778,-0.1763,-0.1709,-0.1592,-0.1529,-0.1455,-0.1358,-0.1315,-0.1233,-0.1169,-0.1054,-0.1038,-0.098,-0.0932,-0.089,-0.0857,-0.0878,-0.0875,-0.0878,-0.0774,-0.0788,-0.0781,-0.0834,-0.0833,-0.0831,-0.0783,0,-0.1936,-0.1855,-0.1811,-0.1692,-0.1631,-0.1557,-0.1474,-0.1421,-0.1381,-0.1322,-0.1226,-0.114,-0.1041,-0.1013,-0.0972,-0.09,-0.09,-0.0883,-0.0876,-0.0858,-0.084,-0.0832,-0.091,-0.091,-0.0909,-0.0909,0,0,-0.2027,-0.1908,-0.1834,-0.1756,-0.17,-0.1638,-0.1568,-0.1506,-0.1381,-0.1344,-0.134,-0.1166,-0.1096,-0.0988,-0.0976,-0.0935,-0.0915,-0.0923,-0.0867,-0.0863,-0.0858,-0.0841,-0.0834,-0.0907,-0.0907,-0.0907,-0.0907,0,-0.2009,-0.1936,-0.1866,-0.1798,-0.1694,-0.1633,-0.1617,-0.1502,-0.146,-0.1364,-0.1314,-0.1246,-0.1107,-0.104,-0.0988,-0.0935,-0.0901,-0.0911,-0.0911,-0.0864,-0.0861,-0.0857,-0.084,-0.0834,-0.0905,-0.0906,-0.0906,0,-0.2041,-0.1956,-0.1912,-0.1778,-0.1709,-0.1633,-0.1606,-0.1526,-0.1469,-0.1403,-0.1308,-0.1249,-0.1151,-0.1059,-0.1014,-0.1009,-0.0893,-0.0913,-0.0915,-0.0908,-0.0858,-0.0854,-0.0851,-0.0899,-0.0899,-0.0899,0,0,-0.2037,-0.196,-0.1844,-0.1768,-0.1728,-0.1635,-0.1585,-0.1538,-0.145,-0.1415,-0.1337,-0.1255,-0.1173,-0.1121,-0.1039,-0.0949,-0.0923,-0.0916,-0.0916,-0.0917,-0.091,-0.0861,-0.0857,-0.0901,-0.0901,-0.0901,0,0,-0.2035,-0.1897,-0.187,-0.1771,-0.1689,-0.1569,-0.1527,-0.1491,-0.1408,-0.1407,-0.1324,-0.1298,-0.121,-0.1153,-0.1179,-0.1036,-0.1031,-0.1023,-0.1075,-0.1075,-0.1075,-0.109,-0.1138,0,0,0,0,0,-0.1972,-0.1914,-0.1891,-0.1862,-0.169,-0.1582,-0.156,-0.1489,-0.1488,-0.1456,-0.1386,-0.1351,-0.115,-0.1171,-0.1144,-0.1115,-0.0916,-0.0913,-0.0911,-0.0957,-0.0957,-0.0957,0,0,0,0,0,0,-0.196,-0.1924,-0.1893,-0.1772,-0.1732,-0.1584,-0.1566,-0.1545,-0.1489,-0.1484,-0.1366,-0.1347,-0.1285,-0.118,-0.1157,-0.1131,-0.1146,-0.0915,-0.0913,-0.091,-0.0957,-0.0957,-0.0957,0,0,0,0,0,-0.195,-0.1921,-0.1664,-0.1772,-0.1738,-0.163,-0.1568,-0.155,-0.1506,-0.1395,-0.1375,-0.1457,-0.1287,-0.1262,-0.1166,-0.1143,-0.1161,-0.1153,-0.0913,-0.0912,-0.091,-0.0957,0,0,0,0,0,0,-0.1943,-0.1904,-0.1656,-0.1643,-0.1787,-0.1637,-0.161,-0.1555,-0.1418,-0.1398,-0.1482,-0.148,-0.1287,-0.1267,-0.1249,-0.1152,-0.1174,-0.1166,-0.116,-0.0912,-0.0911,-0.0909,0,0,0,0,0,0,-0.1919,-0.1894,-0.1649,-0.1673,-0.1662,-0.1644,-0.162,-0.1528,-0.1417,-0.1513,-0.1506,-0.1483,-0.1315,-0.1271,-0.1256,-0.1115,-0.1184,-0.1176,-0.117,-0.1167,-0.0911,-0.091,0,0,0,0,0,0,-0.1908,-0.1885,-0.1676,-0.1667,-0.1658,-0.1507,-0.1561,-0.1389,-0.1437,-0.152,-0.144,-0.1441,-0.132,-0.1303,-0.1262,-0.1127,-0.1118,-0.1184,-0.1178,-0.1174,-0.1172,0,0,0,0,0,0,0,-0.1898,-0.2062,-0.1733,-0.1663,-0.1654,-0.1523,-0.152,-0.1516,-0.1437,-0.1438,-0.1439,-0.144,-0.1232,-0.1223,-0.1213,-0.1137,0,0,-0.1185,-0.1181,0,0,0,0,0,0,0,0,-0.2069,-0.2064,-0.1732,-0.173,-0.1727,-0.1523,-0.152,-0.1517,-0.1438,-0.1438,-0.1439,-0.144,-0.1229,-0.1222,-0.1214,0,0,0,0,0,0,0,0,0,0,0,0,0,0,0,-0.1732,-0.173,0,-0.1522,-0.152,-0.1517,-0.1438,-0.1438,-0.1439,-0.144,-0.1227,-0.1221,-0.1215,0,0,0,0,0,0,0,0,0,0,0,0,0,0,0,0,0,0,0,0,0,0,0,0,0,0,0,0,0,0,0,0,0,0,0,0,0,0,0,0,0,0,0,0,0,0,0,0,0,0,0,0,0,0,0,0,0,0,0,0,0,0,0,0,0,0,0,0,0]}],[{"header":{"parameterUnit":"kt","parameterCategory":2,"dx":1,"dy":1,"la1":30.253999710083008,"la2":30.299108505249023,"lo1":-89.0895004272461,"lo2":-89.04439544677734,"nx":28,"ny":28,"refTime":"2022-10-31T21:00:00:Z","depth":0,"parameterNumber":2,"parameterNumberName":"V-component_of_WINDS"},"data":[0.7972,0.7995,0.7988,0.8011,0.8009,0.8023,0.8026,0.8028,0.8029,0.8045,0.8053,0.8049,0.8046,0.8053,0.8061,0.8059,0.8061,0.8074,0.8068,0.8018,0.801,0.8002,0.7995,0.8076,0.8076,0.8119,0.812,0.812,0.7932,0.793,0.7941,0.7947,0.7956,0.7939,0.7942,0.795,0.7963,0.7965,0.7973,0.7987,0.7997,0.799,0.7998,0.8008,0.7999,0.801,0.8006,0.8005,0.7953,0.7945,0.8016,0.8016,0.8016,0.8016,0.8016,0.8016,0.7858,0.7873,0.7872,0.7884,0.7885,0.7889,0.7902,0.7896,0.7907,0.7915,0.7906,0.7921,0.792,0.7927,0.7928,0.7939,0.7925,0.7934,0.7936,0.7937,0.7938,0.7869,0.7941,0.7941,0.794,0.794,0.794,0,0.78,0.7792,0.7803,0.7811,0.782,0.7826,0.783,0.7839,0.7821,0.7831,0.7844,0.7851,0.7864,0.7874,0.7881,0.788,0.786,0.786,0.7865,0.7866,0.7866,0.7862,0.7771,0.7856,0.7856,0.7855,0.7855,0.7854,0.7719,0.774,0.7736,0.7745,0.7745,0.776,0.7767,0.775,0.7758,0.7761,0.7775,0.7787,0.7795,0.7818,0.781,0.782,0.7809,0.7842,0.781,0.7812,0.7804,0.7801,0.7801,0.7847,0.7848,0.7848,0.7849,0,0.7673,0.7662,0.7692,0.7686,0.7686,0.7708,0.7702,0.7718,0.7711,0.773,0.7734,0.7722,0.7736,0.7723,0.7737,0.7729,0.7761,0.7754,0.7759,0.7755,0.7779,0.7775,0.787,0.7879,0.78,0.7801,0.7802,0,0.7597,0.7626,0.7606,0.7624,0.7654,0.7637,0.7667,0.7663,0.7664,0.7679,0.7657,0.7672,0.7653,0.7666,0.7655,0.768,0.7684,0.7677,0.7673,0.7676,0.7676,0.7676,0.767,0.767,0.7669,0.7669,0.7668,0,0.7522,0.7548,0.7578,0.7581,0.7578,0.7593,0.7592,0.7593,0.76,0.7608,0.7612,0.7624,0.7628,0.7637,0.7622,0.76,0.7654,0.7621,0.7646,0.7646,0.7655,0.7654,0.7745,0.7668,0.7668,0.7667,0.7667,0,0.7457,0.7466,0.7514,0.7509,0.7516,0.7538,0.7546,0.7561,0.7563,0.7557,0.7564,0.7546,0.757,0.7538,0.7569,0.7545,0.7551,0.7548,0.755,0.7546,0.7509,0.7556,0.7649,0.7655,0.7549,0.7548,0.7547,0,0.7371,0.7417,0.7401,0.7447,0.7465,0.7436,0.746,0.7463,0.7457,0.7471,0.7464,0.7481,0.7455,0.7458,0.7476,0.7469,0.7501,0.7465,0.748,0.7481,0.7475,0.7562,0.7576,0.7631,0.7535,0.7536,0.7537,0,0.7303,0.73,0.731,0.7311,0.7314,0.733,0.7358,0.7371,0.738,0.7389,0.7408,0.7435,0.7414,0.7421,0.7408,0.7427,0.7479,0.7402,0.7402,0.7412,0.7529,0.7542,0.7551,0.7466,0.7467,0.7468,0.7527,0,0.7196,0.7219,0.7246,0.7254,0.7266,0.7296,0.7281,0.7295,0.728,0.7273,0.7305,0.7306,0.7319,0.7329,0.7316,0.7366,0.7354,0.7333,0.7296,0.7356,0.7374,0.7382,0.727,0.7269,0.7268,0.7267,0,0,0.7113,0.7146,0.7129,0.7155,0.7162,0.7132,0.7164,0.7169,0.7179,0.7184,0.7165,0.7201,0.7203,0.7243,0.726,0.7268,0.7274,0.7255,0.7329,0.7336,0.7342,0.7362,0.7371,0.7266,0.7265,0.7265,0.7265,0,0.707,0.7075,0.7108,0.7112,0.7117,0.7108,0.7116,0.7115,0.7112,0.7146,0.7118,0.7136,0.7169,0.7171,0.7177,0.7251,0.7227,0.7257,0.7299,0.732,0.7328,0.7336,0.7357,0.7366,0.7262,0.7263,0.7263,0,0.6995,0.6995,0.701,0.703,0.7033,0.7055,0.7013,0.704,0.7054,0.7019,0.7052,0.7051,0.7055,0.7098,0.7117,0.7099,0.7185,0.7158,0.7163,0.7164,0.7183,0.7193,0.7202,0.7084,0.7084,0.7083,0,0,0.6959,0.6982,0.6976,0.7019,0.7023,0.7011,0.7022,0.7008,0.7013,0.7015,0.7012,0.7018,0.7035,0.7047,0.7063,0.7113,0.711,0.7136,0.7145,0.7152,0.7156,0.7177,0.7187,0.7081,0.7081,0.7081,0,0,0.6942,0.6936,0.6921,0.697,0.6976,0.6972,0.6999,0.6979,0.6992,0.6987,0.6965,0.6966,0.7005,0.7005,0.6978,0.7049,0.7014,0.702,0.7047,0.7057,0.7066,0.7062,0.6934,0,0,0,0,0,0.6889,0.6937,0.6923,0.6929,0.6954,0.698,0.6983,0.6966,0.694,0.6961,0.6955,0.6932,0.6985,0.6961,0.6967,0.6996,0.7053,0.7058,0.7062,0.7108,0.7119,0.7129,0,0,0,0,0,0,0.6891,0.6899,0.6921,0.692,0.6926,0.6979,0.6931,0.6927,0.6937,0.6932,0.6933,0.6932,0.6917,0.6956,0.6962,0.699,0.6932,0.7055,0.7059,0.7063,0.7112,0.7121,0.7129,0,0,0,0,0,0.6893,0.6899,0.6944,0.6919,0.6924,0.6913,0.6929,0.6926,0.6933,0.6925,0.6922,0.6919,0.6919,0.6922,0.696,0.6988,0.6928,0.693,0.7058,0.7061,0.7064,0.7116,0,0,0,0,0,0,0.6894,0.6896,0.6944,0.6945,0.69,0.6909,0.691,0.6924,0.6924,0.6922,0.6909,0.6905,0.692,0.6923,0.6926,0.6988,0.6925,0.6927,0.6928,0.706,0.7063,0.7065,0,0,0,0,0,0,0.6892,0.6897,0.6945,0.6921,0.6919,0.6906,0.6907,0.6937,0.6925,0.6908,0.6905,0.6907,0.6916,0.6923,0.6925,0.6973,0.6922,0.6924,0.6926,0.6927,0.7062,0.7064,0,0,0,0,0,0,0.6894,0.6898,0.6921,0.6919,0.6917,0.6924,0.6932,0.6959,0.6905,0.6909,0.69,0.6897,0.6917,0.6919,0.6926,0.6973,0.6973,0.6922,0.6924,0.6925,0.6925,0,0,0,0,0,0,0,0.6895,0.6875,0.694,0.6918,0.6916,0.6952,0.6952,0.6952,0.6905,0.6902,0.69,0.6898,0.691,0.6912,0.6914,0.6972,0,0,0.6922,0.6923,0,0,0,0,0,0,0,0,0.6873,0.6874,0.694,0.694,0.694,0.6952,0.6952,0.6952,0.6904,0.6902,0.6901,0.6899,0.691,0.6912,0.6914,0,0,0,0,0,0,0,0,0,0,0,0,0,0,0,0.694,0.694,0,0.6952,0.6952,0.6952,0.6904,0.6903,0.6901,0.69,0.6911,0.6912,0.6914,0,0,0,0,0,0,0,0,0,0,0,0,0,0,0,0,0,0,0,0,0,0,0,0,0,0,0,0,0,0,0,0,0,0,0,0,0,0,0,0,0,0,0,0,0,0,0,0,0,0,0,0,0,0,0,0,0,0,0,0,0,0,0,0,0,0,0,0,0]}]]]